Snowfall_Accumulation
0.0 0.0 0.0 0.0 0.0 0.0 0.0 0.0 0.0 0.0 0.0 0.0 0.0 0.0 0.0 0.0 0.0 0.0 0.0 0.0 0.0 0.0 0.0 0.0 0.0 0.0 0.0 0.0 0.0 0.0 0.0 0.0 0.0 0.0 0.0 0.0 0.0 0.0 0.0 0.0 0.0 0.0 0.0 0.0 0.0 0.0 0.0
0.0 0.0 0.0 0.0 0.0 0.0 0.0 0.0 0.0 0.0 0.0 0.0 0.0 0.0 0.0 0.0 0.0 0.0 0.0 0.0 0.0 0.0 0.0 0.0 0.0 0.0 0.0 0.0 0.0 0.0 0.0 0.0 0.0 0.0 0.0 0.0 0.0 0.0 0.0 0.0 0.0 0.0 0.0 0.0 0.0 0.0 0.0
0.0 0.0 0.0 0.0 0.0 0.0 0.0 0.0 0.0 0.0 0.0 0.0 0.0 0.0 0.0 0.0 0.0 0.0 0.0 0.0 0.0 0.0 0.0 0.0 0.0 0.0 0.0 0.0 0.0 0.0 0.0 0.0 0.0 0.0 0.0 0.0 0.0 0.0 0.0 0.0 0.0 0.0 0.0 0.0 0.0 0.0 0.0
0.0 0.0 0.0 0.0 0.0 0.0 0.0 0.0 0.0 0.0 0.0 0.0 0.0 0.0 0.0 0.0 0.0 0.0 0.0 0.0 0.0 0.0 0.0 0.0 0.0 0.0 0.0 0.0 0.0 0.0 0.0 0.0 0.0 0.0 0.0 0.0 0.0 0.0 0.0 0.0 0.0 0.0 0.0 0.0 0.0 0.0 0.0
0.0 0.0 0.0 0.0 0.0 0.0 0.0 0.0 0.0 0.0 0.0 0.0 0.0 0.0 0.0 0.0 0.0 0.0 0.0 0.0 0.0 0.0 0.0 0.0 0.0 0.0 0.0 0.0 0.0 0.0 0.0 0.0 0.0 0.0 0.0 0.0 0.0 0.0 0.0 0.0 0.0 0.0 0.0 0.0 0.0 0.0 0.0
0.0 0.0 0.0 0.0 0.0 0.0 0.0 0.0 0.0 0.0 0.0 0.0 0.0 0.0 0.0 0.0 0.0 0.0 0.0 0.0 0.0 0.0 0.0 0.0 0.0 0.0 0.0 0.0 0.0 0.0 0.0 0.0 0.0 0.0 0.0 0.0 0.0 0.0 0.0 0.0 0.0 0.0 0.0 0.0 0.0 0.0 0.0
0.0 0.0 0.0 0.0 0.0 0.0 0.0 0.0 0.0 0.0 0.0 0.0 0.0 0.0 0.0 0.0 0.0 0.0 0.0 0.0 0.0 0.0 0.0 0.0 0.0 0.0 0.0 0.0 0.0 0.0 0.0 0.0 0.0 0.0 0.0 0.0 0.0 0.0 0.0 0.0 0.0 0.0 0.0 0.0 0.0 0.0 0.0
0.0 0.0 0.0 0.0 0.0 0.0 0.0 0.0 0.0 0.0 0.0 0.0 0.0 0.0 0.0 0.0 0.0 0.0 0.0 0.0 0.0 0.0 0.0 0.0 0.0 0.0 0.0 0.0 0.0 0.0 0.0 0.0 0.0 0.0 0.0 0.0 0.0 0.0 0.0 0.0 0.0 0.0 0.0 0.0 0.0 0.0 0.0
0.0 0.0 0.0 0.0 0.0 0.0 0.0 0.0 0.0 0.0 0.0 0.0 0.0 0.0 0.0 0.0 0.0 0.0 0.0 0.0 0.0 0.0 0.7 0.0 0.0 0.0 0.0 0.0 0.0 0.0 0.0 0.0 0.0 0.0 0.0 0.0 0.0 0.0 0.0 0.0 0.0 0.0 0.0 0.0 0.0 0.0 0.0
0.0 0.0 0.0 0.0 0.0 0.0 0.0 0.0 0.0 0.0 0.0 0.0 0.0 0.0 0.0 0.0 0.0 0.0 0.0 0.0 0.0 0.0 1.8 0.0 0.0 0.0 0.0 0.0 0.0 0.0 0.0 0.0 0.0 0.0 0.0 0.0 0.0 0.0 0.0 0.0 0.0 0.0 0.0 0.0 0.0 0.0 0.0
0.0 0.0 0.0 0.0 0.0 0.0 0.0 0.0 0.0 0.0 0.0 0.0 0.0 0.0 0.0 0.0 0.0 0.0 0.0 0.0 0.0 0.0 19.8 0.0 0.0 0.0 0.0 0.0 0.0 0.0 0.0 0.0 0.0 0.0 0.0 0.0 0.0 0.0 0.0 0.0 0.0 0.0 0.0 0.0 0.0 0.0 0.0
0.0 0.0 0.0 0.0 0.0 0.0 0.0 0.0 0.0 0.0 0.0 0.0 0.0 0.0 0.0 0.0 0.0 0.0 0.0 0.0 0.0 13.4 21.3 0.1 0.0 0.0 0.0 0.0 0.0 0.0 0.0 0.0 0.0 0.0 0.0 0.0 0.0 0.0 0.0 0.0 0.0 0.0 0.0 0.0 0.0 0.0 0.5
0.0 0.0 0.0 0.0 0.0 0.0 0.0 0.0 0.0 0.0 0.0 0.0 0.0 0.0 0.0 0.0 0.0 0.0 0.0 0.0 32.2 47.5 0.0 0.0 0.0 0.0 0.0 0.0 0.0 0.0 0.0 0.0 0.0 0.7 0.2 0.0 0.0 0.0 0.0 0.0 0.0 0.0 0.1 1.2 0.9 0.7 0.0
0.0 0.0 0.0 0.0 0.0 0.0 0.0 0.0 0.0 0.0 0.0 0.0 0.0 0.0 0.0 0.0 0.0 0.0 0.0 7.5 67.1 6.2 2.4 0.0 0.0 0.0 0.2 0.0 0.4 0.0 0.0 0.3 0.0 0.0 0.0 0.2 0.3 0.0 0.0 0.0 0.0 0.0 0.0 1.0 1.8 0.4 0.4
0.0 0.0 0.0 0.0 0.0 0.0 0.0 0.0 0.0 0.0 0.0 0.0 0.0 0.0 0.0 0.0 0.0 0.0 0.4 77.6 32.9 0.0 0.3 0.2 0.0 0.0 0.2 0.0 0.0 0.4 0.5 0.4 0.0 0.0 0.7 0.7 0.1 0.0 0.0 0.0 0.0 0.0 0.5 0.0 2.6 0.8 0.6
0.0 0.0 0.0 0.0 0.0 0.0 0.0 0.0 0.0 0.0 0.0 0.0 0.0 0.0 0.0 0.0 0.0 0.0 10.6 52.2 10.2 0.0 0.0 0.0 0.3 0.6 0.1 0.0 0.5 0.8 0.5 1.6 0.2 0.0 0.0 0.0 0.2 0.0 0.0 0.0 0.0 0.0 0.0 3.0 5.2 7.0 2.9
0.0 0.0 0.0 0.0 0.0 0.0 0.0 0.0 0.0 0.0 0.0 0.0 0.0 4.2 0.0 0.0 0.0 0.3 61.9 15.9 3.7 0.0 0.0 0.3 0.7 0.1 0.3 0.1 0.3 0.6 1.9 0.6 0.0 0.0 0.0 0.0 0.8 0.5 0.0 0.0 0.0 0.0 0.9 0.3 1.4 1.8 3.9
0.0 0.0 0.0 0.0 0.0 0.0 0.0 0.0 0.0 0.0 0.0 0.0 0.0 56.2 0.0 0.0 28.0 47.8 42.9 7.2 0.0 0.1 0.0 0.0 0.0 0.2 0.6 0.4 0.3 0.7 0.1 0.0 0.0 0.0 1.7 0.7 1.6 1.3 0.3 0.0 0.0 0.0 0.0 0.6 9.8 4.5 2.6
0.0 0.0 0.0 0.0 0.0 0.0 0.0 0.0 0.0 0.0 0.0 0.0 29.2 28.4 0.0 0.0 89.1 63.2 12.3 4.2 0.1 0.0 0.0 0.1 0.2 0.0 0.1 0.7 2.4 1.1 1.2 0.0 0.0 1.7 2.7 1.2 4.3 3.9 0.8 0.0 0.0 0.2 1.4 1.4 3.0 2.3 4.4
0.0 0.0 0.0 0.0 0.0 0.0 0.0 0.0 0.0 0.0 0.0 0.0 12.9 54.5 8.5 4.4 24.3 23.7 20.7 14.0 7.1 0.1 0.0 0.0 0.1 0.0 0.1 0.2 0.4 0.6 1.2 0.0 0.0 0.5 0.0 0.0 3.7 4.9 3.8 4.3 2.3 2.9 0.7 1.6 5.6 18.3 8.5
0.0 0.0 0.0 0.0 0.0 0.0 0.0 0.0 0.0 0.0 0.0 0.0 25.5 48.9 1.9 59.6 49.2 18.4 12.3 13.9 9.5 8.5 4.5 2.6 4.3 1.2 2.3 3.5 2.6 1.0 1.3 1.8 0.8 0.0 3.2 3.4 12.8 5.9 1.6 0.2 0.4 1.9 1.3 0.2 4.3 1.9 14.2
0.0 0.0 0.0 0.0 0.0 0.0 0.0 0.0 0.0 0.0 0.0 0.0 57.6 22.8 3.1 8.7 4.6 11.8 15.7 20.1 8.2 6.9 8.8 7.7 9.6 4.9 1.7 7.1 4.2 3.5 1.5 0.4 2.1 1.2 3.8 1.6 9.1 6.7 8.8 0.0 1.8 4.0 1.7 0.3 1.7 1.9 4.4
0.0 0.0 0.0 0.0 0.0 0.0 0.0 0.0 0.0 0.0 0.0 13.7 6.5 0.0 9.6 8.2 9.2 15.0 19.3 8.3 5.3 3.4 5.2 2.1 5.6 6.0 3.7 5.6 2.7 1.6 1.3 1.0 1.7 2.3 4.4 3.2 6.1 12.6 10.8 0.8 4.5 15.3 2.3 0.1 2.7 2.8 2.5
0.0 0.0 0.0 0.0 0.0 0.0 0.0 0.0 0.0 0.0 0.0 0.0 0.0 0.0 22.1 31.3 11.5 6.2 1.9 2.6 3.5 3.1 5.8 1.1 0.1 6.3 0.0 0.0 0.0 0.2 0.0 0.0 0.0 0.0 0.1 3.6 8.1 15.0 17.0 10.3 25.9 2.9 1.2 0.3 2.7 3.1 2.8
0.0 0.0 0.0 0.0 0.0 0.0 0.0 0.0 0.0 0.0 0.0 0.0 0.0 0.0 18.2 29.1 6.3 1.7 1.7 1.4 1.2 1.3 3.5 1.9 0.7 0.0 0.0 0.1 7.8 15.6 13.9 7.9 2.2 0.0 0.0 0.4 3.4 23.6 21.4 11.6 4.5 4.3 7.1 6.6 5.2 4.0 2.5
0.0 0.0 0.0 0.0 0.0 0.0 0.0 0.0 0.0 0.0 0.0 0.0 0.0 0.0 5.3 30.2 15.9 0.0 2.1 1.2 5.8 5.2 6.6 3.2 0.0 0.0 1.4 13.1 23.2 26.3 12.8 8.5 4.2 1.6 0.0 0.0 1.4 17.8 22.5 21.8 15.9 7.9 2.5 2.5 4.3 6.8 3.1
0.0 0.0 0.0 0.0 0.0 0.0 0.0 0.0 0.0 0.0 0.0 0.0 0.0 0.0 2.2 33.9 1.4 0.0 9.3 7.9 0.4 1.6 10.7 4.1 2.4 0.5 1.1 20.7 35.7 23.6 9.8 1.1 7.1 4.0 2.7 5.3 10.9 19.6 15.7 23.8 7.2 3.1 4.1 3.7 6.3 9.0 3.3
0.0 0.0 0.0 0.0 0.0 0.0 0.0 0.0 0.0 0.0 0.0 0.0 0.0 0.0 0.0 28.8 2.1 0.0 0.0 5.3 1.3 2.3 12.6 1.4 11.3 10.5 17.0 32.8 27.8 21.0 16.0 6.6 7.6 6.6 6.0 3.6 13.8 19.0 19.4 25.0 15.8 2.4 3.6 3.9 5.2 3.3 2.0
0.0 0.0 0.0 0.0 0.0 0.0 0.0 0.0 0.0 0.0 0.0 0.0 5.4 0.0 0.0 9.0 1.8 0.0 0.0 0.0 0.0 0.0 3.1 4.4 8.3 8.8 11.7 16.9 17.5 14.7 17.7 11.9 9.5 11.1 6.7 13.2 9.2 10.1 9.1 8.2 3.7 2.9 3.4 3.3 2.1 1.6 1.8